Location: Newark
(34.0131°N, 4.3314°W)
Time: 12:30:23
(UTC+00:00)

Vanguard 2 Rocket - Visible Passes

Search period start: 16 October 2019 00:00
Search period end: 26 October 2019 00:00
Orbit: 554 x 3327 km, 32.9° (Epoch: 15 October)

Date Brightness Start Highest point End Pass type
(mag) Time Alt. Az. Time Alt. Az. Time Alt. Az.
17 Oct 10.1 18:01:13 10° W 18:08:04 17° SW 18:13:15 10° SSW visible
18 Oct 11.1 05:40:33 10° SSE 05:45:53 12° SE 05:51:44 10° ESE visible
20 Oct 10.8 05:49:06 10° S 05:58:49 21° SE 06:10:49 10° E visible
21 Oct 10.9 04:55:42 10° SE 04:58:43 11° SE 05:01:57 10° ESE visible
22 Oct 10.5 06:00:28 10° S 06:11:44 30° SE 06:26:53 10° E visible
23 Oct 10.6 05:03:27 10° SSE 05:11:35 19° SE 05:21:58 10° E visible
25 Oct 10.2 05:14:53 10° S 05:24:28 28° SE 05:38:05 10° E visible
